Presure
143 158 162 183 127 144 138 145 142 156 133 144 160 152 159 155 159 112 151 143 134 166 150 137 154 131 151 129 127 154 160 131 138 135 139 139 131 127 139 138 110 117 132 117 116
161 152 135 183 153 133 147 144 140 151 160 141 152 165 163 156 149 132 138 99 160 98 159 149 138 165 159 134 162 132 138 143 175 141 154 139 138 168 163 131 134 129 115 111 130
163 162 133 148 132 158 144 157 139 154 166 160 161 165 148 159 133 158 90 136 143 135 151 166 135 149 158 148 151 149 147 169 150 171 153 154 154 166 128 129 121 121 116 112 108
82 181 168 147 144 146 172 171 172 156 174 142 165 170 164 144 94 113 99 163 154 147 171 150 148 139 165 146 156 153 154 163 137 142 127 144 122 147 134 131 126 120 104 109 109
184 80 156 120 181 149 137 192 178 157 141 143 180 144 163 154 140 146 161 130 110 165 146 134 163 146 142 153 145 161 151 155 149 133 130 149 138 133 124 126 122 125 118 106 115
160 203 110 175 182 127 149 133 126 187 161 143 140 145 185 110 141 158 138 91 96 107 156 157 159 141 163 142 151 148 145 153 160 153 146 156 122 128 134 118 143 111 115 108 109
193 201 200 89 174 187 174 137 155 151 181 138 141 123 134 90 117 144 91 90 159 158 93 146 159 142 156 152 168 149 149 136 159 152 166 139 113 144 143 112 116 111 116 115 108
194 186 205 183 120 178 176 182 136 139 168 140 147 162 135 131 157 146 146 142 92 131 138 156 137 155 142 161 144 137 151 151 146 160 161 160 139 168 162 106 117 111 119 117 101
149 139 176 204 206 155 163 189 161 98 140 119 165 164 133 119 140 113 136 158 89 168 159 163 156 143 145 128 153 144 143 148 142 148 163 143 158 154 119 153 118 110 126 120 121
191 206 196 200 213 200 176 116 185 112 167 125 87 134 92 116 104 107 146 149 122 117 171 154 133 171 167 120 135 151 138 147 157 155 149 163 149 155 153 151 127 147 122 111 122
201 211 209 201 209 203 187 179 122 161 194 194 186 89 105 165 89 152 103 132 152 145 153 170 148 125 165 156 148 140 131 158 157 147 145 149 162 152 141 146 157 133 145 166 134
177 201 206 211 203 209 194 186 187 179 173 180 193 181 180 188 182 132 161 165 164 120 141 163 168 168 131 142 170 131 146 147 139 141 149 143 147 163 160 156 140 146 144 151 131
209 158 200 212 207 203 200 211 178 164 177 176 127 153 163 146 186 165 149 165 132 160 120 135 143 137 175 130 175 164 142 139 151 148 134 156 141 132 125 132 146 143 153 141 140
291 237 200 211 205 202 204 195 178 180 172 192 181 175 191 135 158 169 185 171 145 152 169 139 155 129 143 175 143 121 162 156 137 147 149 138 158 163 145 151 137 147 134 149 140
289 292 282 154 152 207 200 208 172 179 180 167 192 181 210 189 190 169 158 189 185 181 176 159 174 169 160 136 164 165 173 170 159 139 143 151 126 140 138 131 128 139 146 149 137
245 263 298 299 149 157 191 199 210 186 162 175 182 184 152 155 142 164 185 125 192 165 178 149 169 157 145 135 135 131 178 163 135 165 165 149 125 137 138 124 141 146 157 152 148
221 239 249 272 269 149 155 167 203 227 220 169 168 166 161 151 143 156 192 146 160 170 154 181 156 168 133 154 143 156 162 146 165 139 147 145 161 172 141 146 163 137 148 132 159
249 231 238 240 267 278 271 154 155 156 213 218 212 184 171 151 167 173 164 200 162 170 159 159 169 186 182 151 144 150 167 161 173 145 183 145 135 163 154 150 144 158 170 143 135
204 222 240 239 249 273 269 277 152 156 159 155 150 154 158 184 184 162 185 132 169 155 187 176 170 171 181 194 161 146 163 149 170 163 146 157 157 144 137 180 142 140 154 148 149
214 209 252 252 232 263 262 263 262 251 150 158 160 160 187 147 196 146 202 163 186 185 128 152 165 168 177 168 149 171 154 159 171 154 176 162 160 160 161 139 132 134 144 159 153
204 203 217 243 232 255 255 255 255 265 268 240 159 160 164 163 180 202 176 194 184 145 160 186 159 177 182 158 184 178 180 179 179 181 180 163 153 149 163 136 163 157 151 151 138
214 196 222 200 252 243 227 247 249 255 255 299 316 214 204 185 178 202 141 205 207 210 166 170 188 145 148 191 139 185 155 189 158 174 142 144 149 140 181 170 186 155 173 176 162
200 215 194 207 200 227 248 238 250 253 250 251 253 277 282 211 206 137 188 188 193 181 118 181 172 175 186 178 163 189 173 175 166 174 151 167 160 146 177 178 156 187 171 168 179
210 220 201 204 217 212 240 247 245 244 248 246 244 295 287 267 127 200 197 198 192 189 190 126 190 186 186 143 175 176 143 167 158 149 172 173 175 151 185 176 187 194 129 168 204
227 205 192 211 189 185 210 238 237 241 239 242 250 262 282 274 269 264 263 247 205 193 191 175 194 194 193 159 185 184 178 138 187 191 186 195 185 186 213 159 194 185 198 192 164
223 226 224 213 205 230 220 214 239 238 231 236 227 268 265 269 271 262 251 263 247 250 249 237 199 190 187 186 188 137 185 120 146 186 193 138 222 152 115 217 225 217 198 169 156
219 239 224 201 203 197 191 185 220 215 234 226 236 258 268 257 260 269 246 245 248 241 235 237 236 234 220 206 198 166 198 161 215 214 210 201 223 149 136 207 208 180 203 214 155
Wind_Speed
57 61 63 70 43 52 49 49 47 52 44 47 49 46 46 41 42 17 40 39 31 32 33 26 31 20 27 12 11 22 18 12 19 16 18 19 10 6 19 15 14 5 11 11 14
67 60 54 69 56 49 56 52 50 52 58 50 48 50 48 46 46 39 45 13 41 13 33 35 18 27 28 24 25 19 24 23 23 17 21 17 20 20 19 11 14 13 7 10 16
69 69 58 61 53 63 57 63 51 57 64 58 56 56 46 48 40 46 13 42 43 32 34 33 33 34 32 36 31 32 31 25 28 20 26 25 22 21 11 16 10 12 11 12 13
27 82 72 61 58 61 73 72 70 60 67 52 58 60 55 48 21 28 19 48 46 48 38 44 42 37 35 36 34 34 33 27 28 32 19 23 14 25 16 17 13 13 18 18 17
85 30 70 53 77 65 59 85 73 64 55 53 67 49 56 53 44 49 51 38 26 44 48 34 36 46 29 40 28 34 35 33 34 28 26 29 24 20 15 15 13 16 18 19 23
77 89 49 78 79 59 67 55 51 77 66 57 51 51 65 35 47 56 41 20 21 25 44 43 37 42 38 34 42 34 36 36 33 31 35 32 15 18 22 14 21 17 19 20 24
87 88 89 37 81 83 79 61 69 65 70 55 55 44 50 27 39 51 25 22 52 48 23 46 43 44 45 45 38 39 40 28 38 37 31 35 20 35 31 19 17 20 21 25 27
89 87 89 86 55 83 81 81 59 60 70 60 60 67 54 47 61 53 53 44 28 43 46 48 40 48 43 46 40 31 39 45 40 40 38 37 35 32 37 29 23 25 25 25 26
70 69 87 89 90 74 79 88 68 41 60 51 69 68 53 47 58 40 49 56 27 56 54 50 45 51 52 24 49 41 40 44 36 39 41 38 38 41 33 36 29 28 31 28 34
93 96 92 89 90 90 86 57 86 50 74 55 24 57 36 49 39 40 57 57 41 36 58 53 39 57 55 32 30 51 33 44 47 48 40 45 41 43 40 39 36 41 33 31 33
98 98 96 91 90 90 89 86 60 78 86 87 78 39 46 72 31 66 41 51 58 52 54 59 54 40 54 55 52 38 32 47 48 44 39 43 48 43 39 39 46 39 45 47 44
87 97 96 95 91 89 89 91 90 84 77 80 87 78 81 82 80 54 68 68 66 44 45 57 62 60 39 48 58 35 49 49 40 39 46 44 44 51 49 49 43 46 46 49 43
104 77 96 97 92 91 91 94 89 80 82 78 61 70 70 65 81 72 63 73 53 65 46 49 53 47 64 42 64 59 49 41 51 49 36 54 46 40 36 41 49 49 51 47 48
89 108 96 100 94 93 94 94 88 88 80 90 80 79 84 61 69 73 84 77 62 63 72 50 61 47 54 66 54 44 60 53 44 52 52 42 59 59 48 51 49 54 49 53 50
83 85 95 79 74 96 98 96 84 85 84 68 88 81 97 83 87 72 67 82 83 81 78 68 74 69 64 52 61 63 62 60 60 46 54 53 49 47 45 44 48 53 56 57 53
87 83 79 76 81 86 93 95 97 83 74 79 81 83 68 69 62 72 83 56 83 70 77 65 76 64 61 54 55 49 67 63 49 63 65 54 50 55 51 46 55 61 67 62 59
93 86 80 81 86 79 79 84 96 95 96 78 75 73 71 69 62 68 88 65 70 74 69 79 65 72 58 67 62 62 64 56 68 50 61 55 66 66 61 59 66 57 65 57 69
85 91 86 85 81 79 73 77 71 73 94 98 95 85 79 67 79 77 72 90 72 76 69 69 74 83 81 69 61 66 70 71 71 59 71 60 53 70 68 65 58 68 68 62 58
87 86 84 83 80 72 72 71 77 80 77 72 70 72 73 88 85 74 88 62 77 71 83 78 73 74 77 87 75 64 77 62 77 72 65 75 75 61 55 67 63 63 72 68 67
96 86 82 80 84 71 71 67 73 78 76 77 77 78 86 75 92 69 94 76 90 87 56 67 72 75 80 75 66 80 66 69 76 77 72 78 77 77 72 55 59 63 68 79 73
94 87 83 80 82 71 66 68 72 64 66 83 79 80 81 79 84 94 87 93 89 71 75 86 74 85 85 74 85 81 80 76 77 78 75 82 76 68 80 55 71 75 73 75 65
99 86 91 72 75 69 74 69 71 65 66 51 48 71 94 92 91 93 71 94 97 97 76 79 91 71 72 92 71 87 74 89 71 77 69 64 76 62 82 84 80 75 80 82 83
83 98 77 85 71 72 69 71 66 62 63 64 69 69 62 89 96 69 93 93 93 86 55 88 83 86 90 86 77 92 84 83 78 82 81 80 89 64 80 84 83 87 84 83 84
104 97 88 83 75 79 70 68 65 62 63 61 61 50 62 68 67 96 96 97 97 95 94 58 91 90 91 70 89 90 68 81 85 83 88 90 91 74 89 83 88 90 64 83 88
101 94 78 83 68 70 71 70 67 62 61 58 55 54 52 62 70 72 75 82 100 98 98 90 98 98 96 83 96 96 91 73 96 99 91 98 91 95 84 78 88 88 87 88 90
92 90 90 85 84 75 78 76 65 62 62 57 62 49 54 60 59 73 76 74 78 78 82 87 102 98 97 98 99 75 99 59 82 96 99 68 80 81 58 86 79 82 89 87 88
92 93 89 85 77 71 69 65 67 67 64 67 62 53 48 57 61 61 77 77 76 77 80 81 83 82 94 97 104 76 107 89 90 97 96 94 82 77 71 90 92 88 92 96 91
Wind_Direction
237 235 234 232 235 235 237 235 235 241 236 234 238 233 237 236 228 237 229 245 265 256 240 254 253 280 257 247 274 253 269 275 268 278 270 276 285 296 298 295 260 274 321 315 313
233 237 235 226 231 239 235 236 236 237 241 237 240 241 240 234 234 238 255 257 235 272 245 244 265 258 263 270 264 277 273 276 305 272 271 273 280 312 295 294 301 309 292 290 298
239 239 237 235 240 235 236 237 236 239 240 240 240 241 233 237 241 241 241 254 244 258 244 257 265 263 250 257 265 258 260 294 270 297 275 275 279 310 285 288 303 287 294 288 299
232 237 234 238 236 236 232 233 232 237 233 238 239 237 236 238 239 241 239 239 242 244 251 242 252 265 254 263 256 258 266 282 268 272 269 278 262 274 280 278 289 294 283 293 298
234 235 235 237 234 235 238 230 232 235 238 239 233 239 236 237 240 241 240 245 247 241 246 262 255 258 261 254 265 258 265 269 265 273 276 278 277 271 268 272 285 291 289 293 303
240 233 234 234 234 238 237 235 234 233 236 237 239 239 234 237 242 241 246 256 261 262 241 241 248 266 255 264 259 270 272 272 272 274 272 277 251 263 278 267 293 272 280 286 290
232 235 234 239 238 234 234 238 236 237 233 239 239 237 244 247 245 247 261 260 242 245 271 252 245 262 254 253 264 266 267 272 274 276 275 280 260 280 281 263 265 270 277 280 284
233 234 234 232 235 235 236 233 233 237 235 237 238 238 241 244 242 244 250 248 264 256 256 244 263 250 266 252 268 271 271 269 279 275 278 276 277 284 289 284 265 268 275 274 291
232 235 234 231 231 233 236 235 231 242 237 239 237 233 239 246 246 252 251 244 269 244 251 248 252 259 263 257 255 270 274 271 276 280 276 279 279 281 283 286 268 269 284 279 290
234 234 232 231 231 228 234 237 236 238 236 240 245 242 255 243 253 255 248 250 251 251 248 248 257 252 254 261 263 261 273 273 268 273 279 277 282 285 286 287 276 293 279 274 287
234 232 233 231 232 230 230 234 233 235 233 233 235 252 249 236 260 243 254 250 250 254 250 245 253 254 249 253 260 265 263 265 267 277 279 282 281 282 284 289 291 287 295 301 297
233 235 233 232 231 230 229 230 232 237 237 236 235 235 233 232 235 242 245 246 247 247 253 251 249 251 256 265 254 262 269 272 270 278 280 282 282 280 284 287 287 290 294 298 294
233 230 234 233 231 230 230 230 232 235 236 238 237 237 237 243 234 238 247 245 245 250 249 251 254 258 254 260 257 253 267 267 271 274 272 276 277 277 277 284 289 290 295 294 297
234 233 231 232 231 231 230 229 233 232 236 234 236 238 234 239 243 241 236 241 248 249 249 249 253 256 260 254 263 258 260 265 271 274 272 276 277 277 283 285 286 291 290 296 296
235 235 235 228 233 232 231 231 236 235 234 235 235 238 234 237 237 237 247 239 240 243 247 252 253 254 255 260 258 259 262 263 264 268 275 276 273 280 281 280 281 288 294 296 292
229 233 235 235 226 232 231 232 232 233 231 237 236 236 235 235 239 240 238 247 240 249 245 247 251 256 256 259 261 257 260 264 265 267 267 273 277 281 279 276 285 290 288 294 295
231 229 232 234 236 227 233 235 233 232 232 236 237 236 237 235 240 242 238 245 247 246 247 245 251 254 255 256 258 260 263 264 264 271 275 277 274 273 284 284 282 283 289 288 290
230 229 228 231 236 237 236 232 234 234 233 234 232 237 240 237 238 245 244 240 247 248 249 251 250 250 251 258 262 265 264 266 266 269 271 275 269 274 278 282 284 285 281 291 290
236 229 229 231 234 233 234 236 230 234 235 234 231 238 239 240 239 244 244 251 249 245 247 249 252 253 254 256 259 264 263 269 263 269 273 273 273 274 273 279 283 285 288 290 292
231 233 230 231 230 232 233 235 235 234 231 235 237 240 239 232 238 245 240 244 246 248 257 250 252 254 255 256 260 259 261 266 261 269 268 267 273 275 278 275 281 283 285 284 289
229 230 228 228 230 230 234 236 236 236 235 236 236 239 241 243 242 238 242 243 246 248 249 252 252 256 258 256 259 261 265 265 266 266 267 266 275 278 277 274 276 278 282 284 286
228 229 229 228 228 228 230 235 238 236 233 234 228 233 238 240 243 240 246 241 243 244 250 253 251 254 257 258 263 263 259 265 265 267 273 274 274 273 277 276 280 278 278 279 281
220 227 228 232 232 229 230 234 236 235 233 233 234 231 225 237 239 244 244 246 246 247 254 251 253 255 256 258 260 259 262 263 263 267 270 269 271 274 274 276 281 280 279 281 280
222 223 228 231 226 230 230 231 235 235 234 232 229 227 226 230 243 241 243 244 247 250 251 256 254 254 256 259 260 262 266 268 265 268 269 270 272 276 276 275 279 281 282 281 285
218 228 223 227 226 225 235 232 234 235 236 234 232 234 229 228 230 231 234 238 245 247 251 253 253 255 256 257 259 262 267 272 268 269 269 272 273 273 277 277 279 279 283 283 284
219 217 224 224 230 220 227 232 232 233 236 235 232 236 232 228 233 230 234 234 238 241 243 245 250 254 256 258 260 270 265 269 271 269 270 275 272 276 279 278 278 280 281 284 285
219 218 218 229 225 231 230 231 229 234 232 233 234 235 234 234 232 234 233 235 233 236 241 244 245 248 252 254 258 263 262 262 265 266 270 272 267 273 274 280 282 277 284 285 281